Home   Weather   Schmallenberg   Past weeks

Flag for Germany Past Weather in Schmallenberg, North Rhine-Westphalia, Germany — Yesterday and Last 2 Weeks

39 °F


Feels Like: 33 °F
Forecast: 42 / 51 °F
Wind: 9 mph from East

Location: Hessen

Current Time: Oct 23, 2016 at 2:07:16 PM

Latest Report: Oct 23, 2016 at 1:20 PM

Visibility: 1 mi

Pressure: 29.89 "Hg

Humidity: 100%

Dew Point: 39 °F

Location of SchmallenbergLocation

Past Weather in Schmallenberg — Graph


Schmallenberg Temperature Yesterday

Maximum temperature yesterday: 45 °F (at 3:20 PM)
Minimum temperature yesterday: 39 °F (at 8:20 AM)
Average temperature yesterday: 41 °F

High & Low Weather Summary for the Past Weeks

High59 °F (Oct 16, 2:50 PM)100% (Oct 8, 8:50 PM)30.24 "Hg (Oct 8, 8:50 PM)
Low37 °F (Oct 11, 7:50 AM)59% (Oct 16, 3:50 PM)29.68 "Hg (Oct 14, 7:50 PM)
Average44 °F92%30.02 "Hg
* Reported Oct 8 12:20 PM — Oct 23 12:50 PM, Schmallenberg, Weather by CustomWeather, © 2016

Note: Actual official high and low records may vary slightly from our data, if they occured in-between our weather recording intervals... More about our weather records


Schmallenberg Weather History for the Previous 24 Hours

Scroll right to see more
Time TempWeatherWind HumidityBarometerVisibility
12:50 PM
Sun, Oct 23
39 °FFog.9 mph100%29.89 "Hg1 mi
12:20 PM39 °FFog.9 mph100%29.89 "Hg1 mi
11:50 AM39 °FFog.8 mph100%29.92 "Hg1 mi
11:20 AM39 °FFog.8 mph100%29.92 "Hg1 mi
10:50 AM37 °FFog.8 mph100%29.92 "Hg0 mi
10:20 AM37 °FFog.8 mph100%29.92 "Hg0 mi
9:50 AM37 °FFog.7 mph100%29.92 "Hg0 mi
9:20 AM37 °FFog.8 mph100%29.92 "Hg0 mi
8:50 AM37 °FFog.8 mph100%29.89 "Hg0 mi
8:20 AM37 °FFog.6 mph100%29.89 "Hg0 mi
7:50 AM37 °FFog.7 mph100%29.89 "Hg0 mi
7:20 AM37 °FFog.6 mph100%29.89 "Hg0 mi
8:50 PM
Sat, Oct 22
39 °FChilly.No wind100%29.92 "Hg1 mi
8:20 PM39 °FFog.1 mph100%29.92 "Hg2 mi
7:50 PM39 °FPassing clouds.3 mph100%29.92 "Hg2 mi
7:20 PM39 °FFog.1 mph100%29.92 "Hg2 mi
6:50 PM39 °FFog.No wind100%29.92 "Hg4 mi
6:20 PM39 °FFog.No wind100%29.92 "Hg3 mi
5:50 PM41 °FScattered showers. Broken clouds.5 mph100%29.92 "Hg3 mi
5:20 PM41 °FDrizzle. Broken clouds.6 mph100%29.92 "Hg2 mi
4:50 PM43 °FDrizzle. Broken clouds.6 mph93%29.89 "Hg4 mi
4:20 PM43 °FLight rain. Broken clouds.5 mph93%29.89 "HgN/A
3:50 PM43 °FBroken clouds.6 mph87%29.89 "HgN/A
3:20 PM45 °FScattered showers. Broken clouds.5 mph87%29.89 "HgN/A
2:50 PM43 °FScattered showers. Broken clouds.6 mph93%29.89 "HgN/A
2:20 PM43 °FScattered showers. Broken clouds.2 mph87%29.89 "HgN/A
Weather by CustomWeather, © 2016

See weather overviewHow to use our weather pages